Regional Weather Roundup
Issued by NWS

Home | Current Version | Previous Version | Text Only | Print | Product List | Glossary Off
Versions: 1 2 3 4 5 6 7 8 9 10 11 12 13 14 15 16 17 18 19 20 21 22 23 24 25 26 27

000
ASUS43 KDMX 310207
RWRIA

WEATHER ROUNDUP FOR IOWA
NATIONAL WEATHER SERVICE DES MOINES IA
900 PM CDT THU OCT 30 2014

NOTE: "FAIR" INDICATES FEW OR NO CLOUDS BELOW 12,000 FEET WITH NO
SIGNIFICANT WEATHER AND/OR OBSTRUCTIONS TO VISIBILITY.

* - THESE STATIONS ARE NOT NWS STATIONS...THUS NOT UNDER NWS
QUALITY CONTROL.  THEY ALSO DO NOT REPORT WEATHER SUCH
AS PRECIPITATION OR FOG.

IAZ001>003-012>014-020>022-031>034-043>046-310300-
   NORTHWEST IOWA

CITY           SKY/WX    TMP DP  RH WIND       PRES   REMARKS
CARROLL *      CLOUDY    46  39  76 N22G35    30.23R
CHEROKEE *     CLOUDY    40  33  75 N24G33    30.32R WCI  30
DENISON *      CLOUDY    46  41  81 N18G32    30.24R
LE MARS *      CLOUDY    41  32  70 N21G30    30.36R
ORANGE CITY *  CLOUDY    41  30  65 N17G24    30.34R
SHELDON *      CLOUDY    37  30  75 N25G35    30.34R WCI  26
SIOUX CITY     CLOUDY    44  34  67 N26       30.34R
SPENCER        PTCLDY    38  30  73 N30G37    30.31R WCI  26
STORM LAKE *   CLOUDY    41  34  75 N22G36    30.29R
$$

IAZ055>058-069>071-079>083-090>094-310300-
   SOUTHWEST IOWA

CITY           SKY/WX    TMP DP  RH WIND       PRES   REMARKS
ATLANTIC *     CLOUDY    52  41  66 N23G31    30.21R
AUDUBON *      CLOUDY    48  37  66 N15       30.23R
CLARINDA *     CLOUDY    54  43  66 NW9G15    30.20R
COUNCIL BLFS * CLOUDY    48  43  81 NW13G20   30.23R
CRESTON *      CLEAR     50  37  62 N18G29    30.16R
HARLAN  *      CLOUDY    50  41  71 N18G30    30.27R
LAMONI         CLEAR     51  38  60 N14G21    30.12R
RED OAK *      CLOUDY    52  43  71 NW13G23   30.21R
SHENANDOAH *   PTCLDY    50  41  71 NW18G25   30.21R
$$

IAZ047>049-059>061-072>074-084-310300-
   CENTRAL IOWA

CITY           SKY/WX    TMP DP  RH WIND       PRES   REMARKS
AMES           CLOUDY    50  38  63 N21G30    30.17R
ANKENY *       CLOUDY    52  39  62 N23G29    30.16R
CHARITON *     CLOUDY    50  39  66 N8        30.11R
DES MOINES     CLOUDY    55  37  50 N17G28    30.16R
GRINNELL*      CLOUDY    50  38  62 N5        30.14R
KNOXVILLE *    CLOUDY    54  39  58 N7        30.10R
MARSHALLTOWN   CLOUDY    50  38  63 N16       30.15R
PELLA *        CLOUDY    51  39  63 N5        30.13R
PERRY *        CLOUDY    50  40  67 N21G28    30.19R
$$

IAZ004>006-015-016-023>025-035-036-310300-
   NORTH CENTRAL IOWA

CITY           SKY/WX    TMP DP  RH WIND       PRES   REMARKS
ALGONA *       CLOUDY    45  36  70 N21G31    30.25R
CLARION *      CLOUDY    46  37  71 N20G28    30.21R
ESTHERVILLE    CLOUDY    39  30  70 N23G36    30.29R WCI  28
FORT DODGE *   CLOUDY    46  36  66 NW15G25   30.23R
MASON CITY     CLOUDY    45  37  73 N22G29    30.21R
FOREST CITY *  CLOUDY    45  36  70 N18G29    30.21R
IOWA FALLS *   CLOUDY    48  37  66 N17       30.18R
$$

IAZ007>011-017>019-026>030-037>042-050>054-066-310300-
   NORTHEAST IOWA

CITY           SKY/WX    TMP DP  RH WIND       PRES   REMARKS
CEDAR RAPIDS   CLOUDY    49  38  65 CALM      30.10R
CHARLES CITY * CLOUDY    46  37  71 NW15      30.17R
CLINTON *      CLOUDY    46  36  66 CALM      30.11S
DECORAH *      CLOUDY    45  37  76 NW12G17   30.12S
DUBUQUE        CLOUDY    46  38  73 NW6       30.10R
MONTICELLO *   CLOUDY    46  41  81 NW6       30.11R
OELWEIN *      CLOUDY    46  39  76 NW9       30.14R
WATERLOO       LGT RAIN  49  37  63 N12       30.14R
$$

IAZ064-065-067-068-078-310300-
   EAST CENTRAL IOWA

CITY           SKY/WX    TMP DP  RH WIND       PRES   REMARKS
DAVENPORT      CLOUDY    47  37  68 CALM      30.09S
IOWA CITY      CLOUDY    50  38  63 CALM      30.12R
MT. PLEASANT * CLOUDY    46  42  84 NE5       30.09R
MUSCATINE *    CLOUDY    48  41  76 CALM      30.10S
QUAD CITIES    CLOUDY    48  39  71 CALM      30.09R
$$

IAZ062-063-075>077-085>089-095>099-310300-
   SOUTHEAST IOWA

CITY           SKY/WX    TMP DP  RH WIND       PRES   REMARKS
BURLINGTON     CLOUDY    48  41  76 NE5       30.08R
FAIRFIELD *    CLOUDY    48  41  76 N3        30.10R
FORT MADISON * CLOUDY    50  45  81 CALM      30.08S
KEOKUK *       CLOUDY    50  43  76 N7        30.07R
OSKALOOSA *    CLOUDY    50  38  64 NE7       30.10R
CENTERVILLE *    N/A     46  39  76 NE3       30.10R
OTTUMWA        CLOUDY    51  37  58 NE7       30.09R
WASHINGTON *   CLOUDY    48  43  81 N6        30.10R
$$

ABBREVIATIONS USED IN REMARKS
   TC - TEMPERATURES IN CELSIUS
  WCI - WIND CHILL INDEX
   HX - HEAT INDEX
  VSB - VISIBILITY
$$




USA.gov is the U.S. government's official web portal to all federal, state and local government web resources and services.